Time,TemperatureF,DewpointF,PressureIn,WindDirection,WindDirectionDegrees,WindSpeedMPH,WindSpeedGustMPH,Humidity,HourlyPrecipIn,Conditions,Clouds,dailyrainin,SoftwareType,DateUTC
2013-01-28 00:05:00,29.8,27.2,30.44,South,172,0.0,6.0,90,0.00,,,0.00,Wunderground v.1.15,2013-01-28 05:05:00,
2013-01-28 00:10:00,29.7,27.1,30.44,South,172,0.0,0.0,90,0.00,,,0.00,Wunderground v.1.15,2013-01-28 05:10:00,
2013-01-28 00:15:00,29.7,27.1,30.44,South,172,0.0,0.0,90,0.00,,,0.00,Wunderground v.1.15,2013-01-28 05:15:00,
2013-01-28 00:25:00,29.6,27.3,30.44,South,172,0.0,0.0,91,0.00,,,0.00,Wunderground v.1.15,2013-01-28 05:25:00,
2013-01-28 00:30:00,29.6,27.3,30.44,South,172,0.0,0.0,91,0.00,,,0.00,Wunderground v.1.15,2013-01-28 05:30:00,
2013-01-28 00:35:00,29.7,27.4,30.44,South,172,0.0,0.0,91,0.00,,,0.00,Wunderground v.1.15,2013-01-28 05:35:00,
2013-01-28 00:45:00,29.7,27.4,30.43,South,172,0.0,0.0,91,0.00,,,0.00,Wunderground v.1.15,2013-01-28 05:45:00,
2013-01-28 00:50:00,29.8,27.8,30.43,South,172,0.0,0.0,92,0.00,,,0.00,Wunderground v.1.15,2013-01-28 05:50:00,
2013-01-28 00:55:00,29.9,27.9,30.43,South,172,0.0,0.0,92,0.00,,,0.00,Wunderground v.1.15,2013-01-28 05:55:00,
2013-01-28 01:00:00,29.9,27.9,30.43,South,172,0.0,0.0,92,0.00,,,0.00,Wunderground v.1.15,2013-01-28 06:00:00,
2013-01-28 01:10:00,30.0,28.0,30.43,South,172,0.0,0.0,92,0.00,,,0.00,Wunderground v.1.15,2013-01-28 06:10:00,
2013-01-28 01:15:00,30.1,28.3,30.42,South,172,0.0,0.0,93,0.00,,,0.00,Wunderground v.1.15,2013-01-28 06:15:00,
2013-01-28 01:20:00,30.2,28.2,30.42,South,172,0.0,0.0,92,0.00,,,0.00,Wunderground v.1.15,2013-01-28 06:20:00,
2013-01-28 01:30:00,30.3,28.3,30.42,South,179,0.0,0.0,92,0.00,,,0.00,Wunderground v.1.15,2013-01-28 06:30:00,
2013-01-28 01:35:00,30.5,28.5,30.42,SSE,160,0.0,0.0,92,0.00,,,0.00,Wunderground v.1.15,2013-01-28 06:35:00,
2013-01-28 01:40:00,30.7,28.7,30.42,SSE,160,0.0,0.0,92,0.00,,,0.00,Wunderground v.1.15,2013-01-28 06:40:00,
2013-01-28 01:45:00,30.8,28.8,30.42,SSE,160,0.0,0.0,92,0.00,,,0.00,Wunderground v.1.15,2013-01-28 06:45:00,
2013-01-28 01:55:00,31.0,28.9,30.42,SSE,160,0.0,0.0,92,0.00,,,0.00,Wunderground v.1.15,2013-01-28 06:55:00,
2013-01-28 02:00:00,31.1,28.8,30.42,SSE,160,0.0,0.0,91,0.00,,,0.00,Wunderground v.1.15,2013-01-28 07:00:00,
2013-01-28 02:05:00,31.2,28.9,30.42,SSE,160,0.0,0.0,91,0.00,,,0.00,Wunderground v.1.15,2013-01-28 07:05:00,
2013-01-28 02:10:00,31.4,29.3,30.42,SSE,150,0.0,0.0,92,0.00,,,0.00,Wunderground v.1.15,2013-01-28 07:10:00,
2013-01-28 02:20:00,31.7,29.6,30.41,South,183,1.0,1.0,92,0.00,,,0.00,Wunderground v.1.15,2013-01-28 07:20:00,
2013-01-28 02:25:00,31.8,29.5,30.41,South,180,1.0,1.0,91,0.00,,,0.00,Wunderground v.1.15,2013-01-28 07:25:00,
2013-01-28 02:30:00,31.9,29.6,30.42,ESE,120,0.0,2.0,91,0.00,,,0.00,Wunderground v.1.15,2013-01-28 07:30:00,
2013-01-28 02:35:00,32.0,29.7,30.42,SE,143,1.0,2.0,91,0.00,,,0.00,Wunderground v.1.15,2013-01-28 07:35:00,
2013-01-28 02:40:00,32.1,29.8,30.42,SSW,210,1.0,1.0,91,0.00,,,0.00,Wunderground v.1.15,2013-01-28 07:40:00,
2013-01-28 02:50:00,32.2,29.9,30.42,South,170,0.0,0.0,91,0.00,,,0.00,Wunderground v.1.15,2013-01-28 07:50:00,
2013-01-28 02:55:00,32.3,30.0,30.42,SW,215,0.0,0.0,91,0.00,,,0.00,Wunderground v.1.15,2013-01-28 07:55:00,
2013-01-28 03:00:00,32.3,30.2,30.42,SE,139,0.0,0.0,92,0.00,,,0.00,Wunderground v.1.15,2013-01-28 08:00:00,
2013-01-28 03:05:00,32.3,30.2,30.42,SSE,148,0.0,0.0,92,0.00,,,0.00,Wunderground v.1.15,2013-01-28 08:05:00,
2013-01-28 03:15:00,32.4,30.6,30.42,SSE,148,0.0,0.0,93,0.00,,,0.00,Wunderground v.1.15,2013-01-28 08:15:00,
2013-01-28 03:20:00,32.4,30.6,30.42,SSE,148,0.0,0.0,93,0.00,,,0.00,Wunderground v.1.15,2013-01-28 08:20:00,
2013-01-28 03:25:00,32.3,30.5,30.42,SSE,148,0.0,0.0,93,0.00,,,0.00,Wunderground v.1.15,2013-01-28 08:25:00,
2013-01-28 03:30:00,32.3,30.5,30.42,SSW,204,0.0,0.0,93,0.00,,,0.00,Wunderground v.1.15,2013-01-28 08:30:00,
2013-01-28 03:35:00,32.3,30.5,30.42,SSW,203,0.0,0.0,93,0.00,,,0.00,Wunderground v.1.15,2013-01-28 08:35:00,
2013-01-28 03:45:00,32.3,30.5,30.42,South,176,0.0,0.0,93,0.00,,,0.00,Wunderground v.1.15,2013-01-28 08:45:00,
2013-01-28 03:50:00,32.3,30.5,30.42,South,176,0.0,0.0,93,0.00,,,0.00,Wunderground v.1.15,2013-01-28 08:50:00,
2013-01-28 03:55:00,32.3,30.5,30.42,SSE,168,0.0,0.0,93,0.00,,,0.00,Wunderground v.1.15,2013-01-28 08:55:00,
2013-01-28 04:00:00,32.3,30.5,30.40,SSE,162,0.0,0.0,93,0.00,,,0.00,Wunderground v.1.15,2013-01-28 09:00:00,
2013-01-28 04:10:00,32.4,30.6,30.40,SSE,166,0.0,0.0,93,0.00,,,0.00,Wunderground v.1.15,2013-01-28 09:10:00,
2013-01-28 04:15:00,32.4,30.6,30.40,SSE,167,0.0,0.0,93,0.00,,,0.00,Wunderground v.1.15,2013-01-28 09:15:00,
2013-01-28 04:20:00,32.5,30.7,30.40,SSW,210,0.0,0.0,93,0.00,,,0.00,Wunderground v.1.15,2013-01-28 09:20:00,
2013-01-28 04:25:00,32.5,30.4,30.40,SSE,162,0.0,0.0,92,0.00,,,0.00,Wunderground v.1.15,2013-01-28 09:25:00,
2013-01-28 04:35:00,32.6,30.5,30.40,SE,135,0.0,1.0,92,0.00,,,0.00,Wunderground v.1.15,2013-01-28 09:35:00,
2013-01-28 04:40:00,32.6,30.5,30.40,SSE,165,0.0,0.0,92,0.00,,,0.00,Wunderground v.1.15,2013-01-28 09:40:00,
2013-01-28 04:45:00,32.7,30.6,30.40,SSE,153,0.0,0.0,92,0.00,,,0.00,Wunderground v.1.15,2013-01-28 09:45:00,
2013-01-28 04:50:00,32.7,30.6,30.40,SSW,207,0.0,0.0,92,0.00,,,0.00,Wunderground v.1.15,2013-01-28 09:50:00,
2013-01-28 05:00:00,32.8,30.5,30.40,SSW,200,1.0,1.0,91,0.00,,,0.00,Wunderground v.1.15,2013-01-28 10:00:00,
2013-01-28 05:05:00,32.9,30.8,30.40,SSE,155,1.0,1.0,92,0.00,,,0.00,Wunderground v.1.15,2013-01-28 10:05:00,
2013-01-28 05:10:00,32.9,30.8,30.40,SW,216,1.0,1.0,92,0.00,,,0.00,Wunderground v.1.15,2013-01-28 10:10:00,
2013-01-28 05:15:00,32.9,30.8,30.40,SSW,209,1.0,2.0,92,0.00,,,0.00,Wunderground v.1.15,2013-01-28 10:15:00,
2013-01-28 05:20:00,32.8,30.7,30.40,South,178,1.0,1.0,92,0.00,,,0.00,Wunderground v.1.15,2013-01-28 10:20:00,
2013-01-28 05:30:00,32.8,31.0,30.40,SW,214,1.0,1.0,93,0.00,,,0.00,Wunderground v.1.15,2013-01-28 10:30:00,
2013-01-28 05:35:00,32.7,30.9,30.40,SW,230,1.0,1.0,93,0.00,,,0.00,Wunderground v.1.15,2013-01-28 10:35:00,
2013-01-28 05:40:00,32.7,30.9,30.40,SSW,212,0.0,1.0,93,0.00,,,0.00,Wunderground v.1.15,2013-01-28 10:40:00,
2013-01-28 05:45:00,32.7,30.9,30.40,SSW,212,0.0,1.0,93,0.00,,,0.00,Wunderground v.1.15,2013-01-28 10:45:00,
2013-01-28 05:55:00,32.7,31.2,30.40,SSE,166,0.0,0.0,94,0.00,,,0.00,Wunderground v.1.15,2013-01-28 10:55:00,
2013-01-28 06:00:00,32.6,31.1,30.39,SSE,166,0.0,0.0,94,0.00,,,0.00,Wunderground v.1.15,2013-01-28 11:00:00,
2013-01-28 06:05:00,32.6,31.1,30.39,South,181,0.0,1.0,94,0.00,,,0.00,Wunderground v.1.15,2013-01-28 11:05:00,
2013-01-28 06:10:00,32.6,31.1,30.39,South,189,0.0,0.0,94,0.00,,,0.00,Wunderground v.1.15,2013-01-28 11:10:00,
2013-01-28 06:20:00,32.6,31.1,30.39,SSE,157,0.0,0.0,94,0.00,,,0.00,Wunderground v.1.15,2013-01-28 11:20:00,
2013-01-28 06:25:00,32.6,31.3,30.39,SSE,157,0.0,0.0,95,0.00,,,0.00,Wunderground v.1.15,2013-01-28 11:25:00,
2013-01-28 06:30:00,32.6,31.3,30.40,SSE,157,0.0,0.0,95,0.00,,,0.00,Wunderground v.1.15,2013-01-28 11:30:00,
2013-01-28 06:40:00,32.7,31.4,30.40,SW,222,0.0,1.0,95,0.00,,,0.00,Wunderground v.1.15,2013-01-28 11:40:00,
2013-01-28 06:45:00,32.8,31.5,30.40,SW,222,0.0,1.0,95,0.00,,,0.00,Wunderground v.1.15,2013-01-28 11:45:00,
2013-01-28 06:50:00,32.7,31.4,30.40,SW,222,0.0,0.0,95,0.00,,,0.00,Wunderground v.1.15,2013-01-28 11:50:00,
2013-01-28 07:00:00,32.7,31.4,30.40,SSW,207,0.0,0.0,95,0.00,,,0.00,Wunderground v.1.15,2013-01-28 12:00:00,
2013-01-28 07:05:00,32.7,31.4,30.40,SSW,207,0.0,0.0,95,0.00,,,0.00,Wunderground v.1.15,2013-01-28 12:05:00,
2013-01-28 07:10:00,32.7,31.4,30.40,SSE,168,0.0,0.0,95,0.00,,,0.00,Wunderground v.1.15,2013-01-28 12:10:00,
2013-01-28 07:15:00,32.8,31.5,30.40,South,179,0.0,0.0,95,0.00,,,0.00,Wunderground v.1.15,2013-01-28 12:15:00,
2013-01-28 07:20:00,32.8,31.5,30.40,SSE,166,0.0,0.0,95,0.00,,,0.00,Wunderground v.1.15,2013-01-28 12:20:00,
2013-01-28 07:30:00,32.8,31.5,30.40,SE,137,0.0,0.0,95,0.00,,,0.00,Wunderground v.1.15,2013-01-28 12:30:00,
2013-01-28 07:35:00,32.8,31.5,30.40,SW,219,0.0,1.0,95,0.00,,,0.01,Wunderground v.1.15,2013-01-28 12:35:00,
2013-01-28 07:40:00,32.8,31.5,30.40,SSW,210,0.0,0.0,95,0.20,,,0.03,Wunderground v.1.15,2013-01-28 12:40:00,
2013-01-28 07:45:00,32.9,31.6,30.40,SSW,212,0.0,0.0,95,0.07,,,0.03,Wunderground v.1.15,2013-01-28 12:45:00,
2013-01-28 07:50:00,32.9,31.6,30.40,SSW,211,0.0,0.0,95,0.05,,,0.03,Wunderground v.1.15,2013-01-28 12:50:00,
2013-01-28 08:00:00,33.0,31.7,30.40,SSE,168,0.0,0.0,95,0.00,,,0.03,Wunderground v.1.15,2013-01-28 13:00:00,
2013-01-28 08:05:00,33.0,31.7,30.40,South,174,0.0,0.0,95,0.00,,,0.03,Wunderground v.1.15,2013-01-28 13:05:00,
2013-01-28 08:10:00,33.0,31.7,30.40,South,174,0.0,0.0,95,0.00,,,0.03,Wunderground v.1.15,2013-01-28 13:10:00,
2013-01-28 08:19:00,33.1,31.8,30.41,South,177,0.0,0.0,95,0.00,,,0.03,Wunderground v.1.15,2013-01-28 13:19:00,
2013-01-28 08:25:00,33.2,31.9,30.41,WSW,250,0.0,0.0,95,0.00,,,0.03,Wunderground v.1.15,2013-01-28 13:25:00,
2013-01-28 08:30:00,33.4,32.1,30.41,WSW,250,0.0,0.0,95,0.00,,,0.03,Wunderground v.1.15,2013-01-28 13:30:00,
2013-01-28 08:35:00,33.4,32.1,30.41,WSW,250,0.0,0.0,95,0.00,,,0.03,Wunderground v.1.15,2013-01-28 13:35:00,
2013-01-28 08:40:00,33.5,32.2,30.41,WSW,249,0.0,1.0,95,0.00,,,0.03,Wunderground v.1.15,2013-01-28 13:40:00,
2013-01-28 08:50:00,33.7,32.2,30.40,South,179,1.0,1.0,94,0.00,,,0.03,Wunderground v.1.15,2013-01-28 13:50:00,
2013-01-28 08:55:00,33.8,32.3,30.40,SW,230,0.0,2.0,94,0.00,,,0.03,Wunderground v.1.15,2013-01-28 13:55:00,
2013-01-28 09:00:00,33.9,32.4,30.40,South,175,0.0,1.0,94,0.00,,,0.03,Wunderground v.1.15,2013-01-28 14:00:00,
2013-01-28 09:05:00,34.1,32.3,30.40,WSW,240,0.0,1.0,93,0.00,,,0.03,Wunderground v.1.15,2013-01-28 14:05:00,
2013-01-28 09:10:00,34.3,32.8,30.40,WSW,240,0.0,0.0,94,0.00,,,0.03,Wunderground v.1.15,2013-01-28 14:10:00,
2013-01-28 09:20:00,34.6,32.8,30.41,WSW,240,0.0,0.0,93,0.00,,,0.03,Wunderground v.1.15,2013-01-28 14:20:00,
2013-01-28 09:25:00,34.8,33.0,30.41,SSW,210,0.0,0.0,93,0.00,,,0.03,Wunderground v.1.15,2013-01-28 14:25:00,
2013-01-28 09:30:00,35.1,33.3,30.40,SSW,200,0.0,1.0,93,0.00,,,0.03,Wunderground v.1.15,2013-01-28 14:30:00,
2013-01-28 09:35:00,35.3,33.2,30.40,South,175,0.0,1.0,92,0.00,,,0.03,Wunderground v.1.15,2013-01-28 14:35:00,
2013-01-28 09:40:00,35.7,33.6,30.40,SSW,211,1.0,1.0,92,0.00,,,0.03,Wunderground v.1.15,2013-01-28 14:40:00,
2013-01-28 09:50:00,36.5,34.1,30.39,SSE,158,1.0,1.0,91,0.00,,,0.03,Wunderground v.1.15,2013-01-28 14:50:00,
2013-01-28 09:55:00,36.8,34.1,30.39,SW,232,1.0,1.0,90,0.00,,,0.03,Wunderground v.1.15,2013-01-28 14:55:00,
2013-01-28 10:00:00,37.0,34.1,30.38,SSE,164,1.0,1.0,89,0.00,,,0.03,Wunderground v.1.15,2013-01-28 15:00:00,
2013-01-28 10:09:00,37.5,34.0,30.38,ESE,117,1.0,1.0,87,0.00,,,0.04,Wunderground v.1.15,2013-01-28 15:09:00,
2013-01-28 10:15:00,37.9,34.7,30.38,SW,220,1.0,2.0,88,0.00,,,0.04,Wunderground v.1.15,2013-01-28 15:15:00,
2013-01-28 10:20:00,38.5,35.0,30.38,South,181,1.0,2.0,87,0.00,,,0.04,Wunderground v.1.15,2013-01-28 15:20:00,
2013-01-28 10:25:00,39.0,34.6,30.38,West,269,2.0,2.0,84,0.00,,,0.04,Wunderground v.1.15,2013-01-28 15:25:00,
2013-01-28 10:30:00,39.4,34.7,30.38,West,274,1.0,2.0,83,0.00,,,0.04,Wunderground v.1.15,2013-01-28 15:30:00,
2013-01-28 10:40:00,40.5,34.8,30.38,WSW,257,2.0,2.0,80,0.00,,,0.04,Wunderground v.1.15,2013-01-28 15:40:00,
2013-01-28 10:45:00,40.9,34.6,30.38,WSW,243,2.0,2.0,78,0.00,,,0.05,Wunderground v.1.15,2013-01-28 15:45:00,
2013-01-28 10:50:00,41.2,34.9,30.38,WSW,237,2.0,2.0,78,0.00,,,0.05,Wunderground v.1.15,2013-01-28 15:50:00,
2013-01-28 10:55:00,41.5,35.2,30.38,SSW,210,2.0,3.0,78,0.00,,,0.05,Wunderground v.1.15,2013-01-28 15:55:00,
2013-01-28 11:00:00,41.8,35.1,30.36,SSW,193,2.0,2.0,77,0.00,,,0.05,Wunderground v.1.15,2013-01-28 16:00:00,
2013-01-28 11:10:00,42.4,35.4,30.36,SSW,211,1.0,2.0,76,0.00,,,0.05,Wunderground v.1.15,2013-01-28 16:10:00,
2013-01-28 11:15:00,42.4,34.7,30.36,SSW,198,2.0,3.0,74,0.00,,,0.05,Wunderground v.1.15,2013-01-28 16:15:00,
2013-01-28 11:20:00,42.4,35.4,30.36,SSW,203,3.0,3.0,76,0.00,,,0.05,Wunderground v.1.15,2013-01-28 16:20:00,
2013-01-28 11:25:00,42.4,35.0,30.36,South,172,2.0,3.0,75,0.00,,,0.06,Wunderground v.1.15,2013-01-28 16:25:00,
2013-01-28 11:35:00,42.9,35.2,30.35,SSW,209,3.0,4.0,74,0.00,,,0.06,Wunderground v.1.15,2013-01-28 16:35:00,
2013-01-28 11:40:00,43.3,35.6,30.35,SE,145,3.0,3.0,74,0.00,,,0.06,Wunderground v.1.15,2013-01-28 16:40:00,
2013-01-28 11:45:00,43.6,35.2,30.34,SSW,210,3.0,3.0,72,0.00,,,0.06,Wunderground v.1.15,2013-01-28 16:45:00,
2013-01-28 11:50:00,44.1,35.3,30.34,SE,139,3.0,3.0,71,0.00,,,0.06,Wunderground v.1.15,2013-01-28 16:50:00,
2013-01-28 11:55:00,44.6,36.1,30.34,SSW,206,3.0,3.0,72,0.00,,,0.06,Wunderground v.1.15,2013-01-28 16:55:00,
2013-01-28 12:05:00,45.8,36.2,30.33,SSW,205,3.0,4.0,69,0.00,,,0.07,Wunderground v.1.15,2013-01-28 17:05:00,
2013-01-28 12:15:00,46.3,37.0,30.32,SW,219,3.0,6.0,70,0.00,,,0.07,Wunderground v.1.15,2013-01-28 17:15:00,
2013-01-28 12:20:00,46.6,37.0,30.32,SSW,195,3.0,3.0,69,0.00,,,0.07,Wunderground v.1.15,2013-01-28 17:20:00,
2013-01-28 12:25:00,46.9,37.3,30.32,SW,216,4.0,4.0,69,0.00,,,0.07,Wunderground v.1.15,2013-01-28 17:25:00,
2013-01-28 12:30:00,47.1,37.1,30.30,SSE,162,3.0,4.0,68,0.00,,,0.07,Wunderground v.1.15,2013-01-28 17:30:00,
2013-01-28 12:35:00,47.4,37.7,30.30,SW,219,3.0,4.0,69,0.00,,,0.07,Wunderground v.1.15,2013-01-28 17:35:00,
2013-01-28 12:45:00,47.9,38.2,30.29,SW,222,3.0,5.0,69,0.00,,,0.07,Wunderground v.1.15,2013-01-28 17:45:00,
2013-01-28 12:50:00,48.2,38.9,30.29,SSW,208,2.0,4.0,70,0.00,,,0.07,Wunderground v.1.15,2013-01-28 17:50:00,
2013-01-28 12:55:00,48.5,38.4,30.29,SSW,211,3.0,4.0,68,0.00,,,0.07,Wunderground v.1.15,2013-01-28 17:55:00,
2013-01-28 13:05:00,49.0,38.5,30.27,SW,220,4.0,9.0,67,0.00,,,0.07,Wunderground v.1.15,2013-01-28 18:05:00,
2013-01-28 13:10:00,49.4,38.9,30.27,SSW,195,3.0,6.0,67,0.00,,,0.07,Wunderground v.1.15,2013-01-28 18:10:00,
2013-01-28 13:15:00,49.6,39.1,30.27,SSW,202,4.0,6.0,67,0.00,,,0.07,Wunderground v.1.15,2013-01-28 18:15:00,
2013-01-28 13:20:00,49.4,38.5,30.27,SW,227,3.0,6.0,66,0.00,,,0.07,Wunderground v.1.15,2013-01-28 18:20:00,
2013-01-28 13:25:00,49.2,38.3,30.27,WSW,242,3.0,6.0,66,0.00,,,0.07,Wunderground v.1.15,2013-01-28 18:25:00,
2013-01-28 13:35:00,49.4,37.7,30.26,NW,307,3.0,6.0,64,0.00,,,0.07,Wunderground v.1.15,2013-01-28 18:35:00,
2013-01-28 13:40:00,49.4,37.7,30.26,NW,323,3.0,3.0,64,0.00,,,0.07,Wunderground v.1.15,2013-01-28 18:40:00,
2013-01-28 13:45:00,49.4,38.5,30.25,SW,219,2.0,6.0,66,0.00,,,0.07,Wunderground v.1.15,2013-01-28 18:45:00,
2013-01-28 13:50:00,49.2,37.9,30.25,South,170,2.0,2.0,65,0.00,,,0.07,Wunderground v.1.15,2013-01-28 18:50:00,
2013-01-28 13:55:00,49.1,37.4,30.25,SW,226,2.0,6.0,64,0.00,,,0.07,Wunderground v.1.15,2013-01-28 18:55:00,
2013-01-28 14:05:00,49.0,37.3,30.25,SSW,210,3.0,6.0,64,0.00,,,0.07,Wunderground v.1.15,2013-01-28 19:05:00,
2013-01-28 14:10:00,48.9,37.6,30.25,SSW,196,3.0,3.0,65,0.00,,,0.07,Wunderground v.1.15,2013-01-28 19:10:00,
2013-01-28 14:15:00,48.7,37.5,30.24,SW,221,3.0,5.0,65,0.00,,,0.07,Wunderground v.1.15,2013-01-28 19:15:00,
2013-01-28 14:20:00,48.6,37.7,30.24,West,277,3.0,6.0,66,0.00,,,0.07,Wunderground v.1.15,2013-01-28 19:20:00,
2013-01-28 14:30:00,48.4,37.6,30.24,WSW,241,3.0,6.0,66,0.00,,,0.07,Wunderground v.1.15,2013-01-28 19:30:00,
2013-01-28 14:35:00,48.4,38.3,30.24,SSE,168,3.0,6.0,68,0.00,,,0.07,Wunderground v.1.15,2013-01-28 19:35:00,
2013-01-28 14:40:00,48.5,38.8,30.24,South,189,3.0,6.0,69,0.00,,,0.07,Wunderground v.1.15,2013-01-28 19:40:00,
2013-01-28 14:45:00,48.6,38.5,30.23,SSW,202,3.0,6.0,68,0.00,,,0.07,Wunderground v.1.15,2013-01-28 19:45:00,
2013-01-28 14:54:00,48.8,38.3,30.23,SW,229,2.0,6.0,67,0.00,,,0.07,Wunderground v.1.15,2013-01-28 19:54:00,
2013-01-28 15:00:00,48.9,38.8,30.23,SSW,213,2.0,6.0,68,0.00,,,0.07,Wunderground v.1.15,2013-01-28 20:00:00,
2013-01-28 15:05:00,49.0,39.3,30.23,SSE,151,3.0,6.0,69,0.00,,,0.07,Wunderground v.1.15,2013-01-28 20:05:00,
2013-01-28 15:10:00,49.0,39.6,30.23,SW,219,3.0,3.0,70,0.00,,,0.07,Wunderground v.1.15,2013-01-28 20:10:00,
2013-01-28 15:15:00,49.1,39.4,30.22,SW,232,3.0,6.0,69,0.00,,,0.07,Wunderground v.1.15,2013-01-28 20:15:00,
2013-01-28 15:25:00,49.3,40.3,30.22,SW,219,2.0,6.0,71,0.00,,,0.07,Wunderground v.1.15,2013-01-28 20:25:00,
2013-01-28 15:30:00,49.4,40.0,30.22,SSW,212,3.0,6.0,70,0.00,,,0.07,Wunderground v.1.15,2013-01-28 20:30:00,
2013-01-28 15:35:00,49.4,40.4,30.22,South,183,2.0,6.0,71,0.00,,,0.07,Wunderground v.1.15,2013-01-28 20:35:00,
2013-01-28 15:40:00,49.4,40.4,30.22,WSW,250,2.0,6.0,71,0.00,,,0.07,Wunderground v.1.15,2013-01-28 20:40:00,
2013-01-28 15:45:00,49.4,40.4,30.22,SSW,207,3.0,6.0,71,0.00,,,0.07,Wunderground v.1.15,2013-01-28 20:45:00,
2013-01-28 15:55:00,49.5,40.8,30.22,SSW,210,2.0,6.0,72,0.00,,,0.07,Wunderground v.1.15,2013-01-28 20:55:00,
2013-01-28 16:00:00,49.5,40.8,30.22,SSW,205,3.0,3.0,72,0.00,,,0.07,Wunderground v.1.15,2013-01-28 21:00:00,
2013-01-28 16:05:00,49.4,40.7,30.22,SSW,205,2.0,6.0,72,0.00,,,0.07,Wunderground v.1.15,2013-01-28 21:05:00,
2013-01-28 16:10:00,49.4,41.5,30.22,SSW,211,2.0,6.0,74,0.00,,,0.07,Wunderground v.1.15,2013-01-28 21:10:00,
2013-01-28 16:20:00,49.4,41.5,30.21,WSW,238,2.0,2.0,74,0.00,,,0.07,Wunderground v.1.15,2013-01-28 21:20:00,
2013-01-28 16:25:00,49.4,41.1,30.21,SE,127,2.0,6.0,73,0.00,,,0.07,Wunderground v.1.15,2013-01-28 21:25:00,
2013-01-28 16:30:00,49.4,41.5,30.21,SW,228,1.0,6.0,74,0.00,,,0.07,Wunderground v.1.15,2013-01-28 21:30:00,
2013-01-28 16:35:00,49.3,41.4,30.21,SW,217,1.0,6.0,74,0.00,,,0.07,Wunderground v.1.15,2013-01-28 21:35:00,
2013-01-28 16:45:00,49.1,41.2,30.21,SW,226,2.0,6.0,74,0.00,,,0.07,Wunderground v.1.15,2013-01-28 21:45:00,
2013-01-28 16:50:00,49.0,41.4,30.21,SW,226,1.0,1.0,75,0.00,,,0.07,Wunderground v.1.15,2013-01-28 21:50:00,
2013-01-28 16:55:00,48.9,41.3,30.21,SE,142,1.0,2.0,75,0.00,,,0.07,Wunderground v.1.15,2013-01-28 21:55:00,
2013-01-28 17:00:00,48.8,41.2,30.22,SSW,202,2.0,6.0,75,0.00,,,0.07,Wunderground v.1.15,2013-01-28 22:00:00,
2013-01-28 17:10:00,48.7,41.1,30.22,South,180,2.0,2.0,75,0.00,,,0.07,Wunderground v.1.15,2013-01-28 22:10:00,
2013-01-28 17:15:00,48.7,41.5,30.21,SSW,212,2.0,6.0,76,0.00,,,0.07,Wunderground v.1.15,2013-01-28 22:15:00,
2013-01-28 17:20:00,48.6,41.4,30.21,SW,219,2.0,6.0,76,0.00,,,0.07,Wunderground v.1.15,2013-01-28 22:20:00,
2013-01-28 17:25:00,48.5,41.3,30.21,SSW,212,2.0,6.0,76,0.00,,,0.07,Wunderground v.1.15,2013-01-28 22:25:00,
2013-01-28 17:35:00,48.4,41.5,30.21,South,173,1.0,6.0,77,0.00,,,0.07,Wunderground v.1.15,2013-01-28 22:35:00,
2013-01-28 17:40:00,48.3,41.4,30.21,SW,234,1.0,6.0,77,0.00,,,0.07,Wunderground v.1.15,2013-01-28 22:40:00,
2013-01-28 17:45:00,48.1,41.2,30.22,SSW,208,1.0,6.0,77,0.00,,,0.07,Wunderground v.1.15,2013-01-28 22:45:00,
2013-01-28 17:50:00,48.0,41.5,30.22,SSW,198,1.0,6.0,78,0.00,,,0.07,Wunderground v.1.15,2013-01-28 22:50:00,
2013-01-28 17:55:00,47.9,41.4,30.22,SSW,213,1.0,6.0,78,0.00,,,0.07,Wunderground v.1.15,2013-01-28 22:55:00,
2013-01-28 18:05:00,47.6,41.4,30.21,SSW,201,2.0,6.0,79,0.00,,,0.07,Wunderground v.1.15,2013-01-28 23:05:00,
2013-01-28 18:10:00,47.5,41.3,30.21,SW,225,2.0,2.0,79,0.00,,,0.07,Wunderground v.1.15,2013-01-28 23:10:00,
2013-01-28 18:15:00,47.5,41.3,30.22,South,171,1.0,6.0,79,0.00,,,0.07,Wunderground v.1.15,2013-01-28 23:15:00,
2013-01-28 18:20:00,47.5,41.6,30.22,SSW,206,1.0,1.0,80,0.00,,,0.07,Wunderground v.1.15,2013-01-28 23:20:00,
2013-01-28 18:30:00,47.4,41.5,30.22,SSW,208,2.0,2.0,80,0.00,,,0.07,Wunderground v.1.15,2013-01-28 23:30:00,
2013-01-28 18:35:00,47.4,41.5,30.22,South,191,2.0,6.0,80,0.00,,,0.07,Wunderground v.1.15,2013-01-28 23:35:00,
2013-01-28 18:40:00,47.3,41.4,30.22,NW,304,1.0,6.0,80,0.00,,,0.07,Wunderground v.1.15,2013-01-28 23:40:00,
2013-01-28 18:45:00,47.3,41.8,30.22,WSW,241,1.0,6.0,81,0.00,,,0.07,Wunderground v.1.15,2013-01-28 23:45:00,
2013-01-28 18:55:00,47.5,42.6,30.22,SW,234,2.0,6.0,83,0.00,,,0.07,Wunderground v.1.15,2013-01-28 23:55:00,
2013-01-28 19:00:00,47.8,43.8,30.22,WSW,246,2.0,2.0,86,0.00,,,0.07,Wunderground v.1.15,2013-01-29 00:00:00,
2013-01-28 19:05:00,48.2,44.5,30.22,SW,229,3.0,3.0,87,0.00,,,0.07,Wunderground v.1.15,2013-01-29 00:05:00,
2013-01-28 19:10:00,48.4,44.7,30.22,SSW,203,2.0,6.0,87,0.00,,,0.07,Wunderground v.1.15,2013-01-29 00:10:00,
2013-01-28 19:15:00,48.5,44.8,30.22,SW,230,2.0,6.0,87,0.00,,,0.07,Wunderground v.1.15,2013-01-29 00:15:00,
2013-01-28 19:25:00,48.7,45.0,30.22,SW,232,3.0,6.0,87,0.00,,,0.07,Wunderground v.1.15,2013-01-29 00:25:00,
2013-01-28 19:30:00,48.8,45.1,30.21,SW,217,3.0,3.0,87,0.00,,,0.07,Wunderground v.1.15,2013-01-29 00:30:00,
2013-01-28 19:35:00,48.8,45.4,30.21,SSW,207,2.0,6.0,88,0.00,,,0.07,Wunderground v.1.15,2013-01-29 00:35:00,
2013-01-28 19:40:00,48.8,45.4,30.21,South,188,2.0,6.0,88,0.00,,,0.07,Wunderground v.1.15,2013-01-29 00:40:00,
2013-01-28 19:45:00,48.7,45.3,30.21,SW,234,2.0,6.0,88,0.00,,,0.07,Wunderground v.1.15,2013-01-29 00:45:00,
2013-01-28 19:55:00,48.7,45.3,30.21,WSW,243,2.0,6.0,88,0.00,,,0.07,Wunderground v.1.15,2013-01-29 00:55:00,
2013-01-28 20:00:00,48.6,45.2,30.20,South,181,2.0,6.0,88,0.00,,,0.07,Wunderground v.1.15,2013-01-29 01:00:00,
2013-01-28 20:05:00,48.6,45.2,30.20,SSW,207,2.0,6.0,88,0.00,,,0.07,Wunderground v.1.15,2013-01-29 01:05:00,
2013-01-28 20:10:00,48.6,45.5,30.20,SSW,204,2.0,2.0,89,0.00,,,0.07,Wunderground v.1.15,2013-01-29 01:10:00,
2013-01-28 20:20:00,48.7,45.6,30.20,SW,228,2.0,6.0,89,0.00,,,0.07,Wunderground v.1.15,2013-01-29 01:20:00,
2013-01-28 20:25:00,48.8,45.7,30.20,SW,222,2.0,6.0,89,0.00,,,0.07,Wunderground v.1.15,2013-01-29 01:25:00,
2013-01-28 20:30:00,48.8,45.4,30.20,SW,231,2.0,6.0,88,0.00,,,0.07,Wunderground v.1.15,2013-01-29 01:30:00,
2013-01-28 20:35:00,48.8,45.4,30.20,SW,235,2.0,6.0,88,0.00,,,0.07,Wunderground v.1.15,2013-01-29 01:35:00,
2013-01-28 20:45:00,48.7,45.6,30.20,SW,227,2.0,6.0,89,0.00,,,0.07,Wunderground v.1.15,2013-01-29 01:45:00,
2013-01-28 20:50:00,48.8,45.7,30.20,SW,226,2.0,6.0,89,0.00,,,0.07,Wunderground v.1.15,2013-01-29 01:50:00,
2013-01-28 20:55:00,48.8,45.7,30.20,SW,221,3.0,6.0,89,0.00,,,0.07,Wunderground v.1.15,2013-01-29 01:55:00,
2013-01-28 21:00:00,48.8,45.7,30.19,WSW,257,2.0,6.0,89,0.00,,,0.07,Wunderground v.1.15,2013-01-29 02:00:00,
2013-01-28 21:05:00,48.8,45.7,30.19,SW,219,2.0,6.0,89,0.00,,,0.07,Wunderground v.1.15,2013-01-29 02:05:00,
2013-01-28 21:15:00,48.7,45.9,30.19,SW,215,2.0,6.0,90,0.00,,,0.07,Wunderground v.1.15,2013-01-29 02:15:00,
2013-01-28 21:20:00,48.7,45.9,30.19,SW,232,2.0,6.0,90,0.00,,,0.07,Wunderground v.1.15,2013-01-29 02:20:00,
2013-01-28 21:25:00,48.7,45.9,30.19,SW,217,3.0,6.0,90,0.00,,,0.07,Wunderground v.1.15,2013-01-29 02:25:00,
2013-01-28 21:30:00,48.7,45.9,30.18,SW,222,2.0,2.0,90,0.00,,,0.07,Wunderground v.1.15,2013-01-29 02:30:00,
2013-01-28 21:35:00,48.6,45.8,30.18,SW,216,2.0,6.0,90,0.00,,,0.07,Wunderground v.1.15,2013-01-29 02:35:00,
2013-01-28 21:45:00,48.6,45.8,30.18,SSW,209,2.0,6.0,90,0.00,,,0.07,Wunderground v.1.15,2013-01-29 02:45:00,
2013-01-28 21:50:00,48.6,45.8,30.18,SW,215,2.0,6.0,90,0.00,,,0.07,Wunderground v.1.15,2013-01-29 02:50:00,
2013-01-28 21:55:00,48.5,45.7,30.18,SW,235,2.0,6.0,90,0.00,,,0.07,Wunderground v.1.15,2013-01-29 02:55:00,
2013-01-28 22:00:00,48.5,45.7,30.18,SW,236,2.0,6.0,90,0.00,,,0.07,Wunderground v.1.15,2013-01-29 03:00:00,
2013-01-28 22:05:00,48.6,46.1,30.18,WSW,252,2.0,6.0,91,0.00,,,0.07,Wunderground v.1.15,2013-01-29 03:05:00,
2013-01-28 22:15:00,48.6,45.8,30.17,SW,231,2.0,6.0,90,0.00,,,0.07,Wunderground v.1.15,2013-01-29 03:15:00,
2013-01-28 22:20:00,48.5,45.7,30.17,SSW,207,2.0,2.0,90,0.00,,,0.07,Wunderground v.1.15,2013-01-29 03:20:00,
2013-01-28 22:25:00,48.5,45.7,30.17,SW,225,2.0,6.0,90,0.00,,,0.07,Wunderground v.1.15,2013-01-29 03:25:00,
2013-01-28 22:30:00,48.5,46.0,30.17,SSW,205,2.0,6.0,91,0.00,,,0.07,Wunderground v.1.15,2013-01-29 03:30:00,
2013-01-28 22:40:00,48.6,46.1,30.17,SSW,211,2.0,6.0,91,0.00,,,0.07,Wunderground v.1.15,2013-01-29 03:40:00,
2013-01-28 22:45:00,48.6,46.1,30.16,WSW,240,3.0,6.0,91,0.00,,,0.07,Wunderground v.1.15,2013-01-29 03:45:00,
2013-01-28 22:50:00,48.7,46.2,30.16,WSW,252,3.0,3.0,91,0.00,,,0.07,Wunderground v.1.15,2013-01-29 03:50:00,
2013-01-28 22:55:00,48.7,46.2,30.16,WSW,249,3.0,6.0,91,0.00,,,0.07,Wunderground v.1.15,2013-01-29 03:55:00,
2013-01-28 23:05:00,48.8,46.3,30.17,WSW,240,3.0,6.0,91,0.00,,,0.07,Wunderground v.1.15,2013-01-29 04:05:00,
2013-01-28 23:10:00,48.8,46.3,30.17,SW,221,3.0,3.0,91,0.00,,,0.07,Wunderground v.1.15,2013-01-29 04:10:00,
2013-01-28 23:15:00,48.7,46.2,30.16,WSW,250,2.0,6.0,91,0.00,,,0.07,Wunderground v.1.15,2013-01-29 04:15:00,
2013-01-28 23:20:00,48.7,46.2,30.16,SW,221,2.0,6.0,91,0.00,,,0.07,Wunderground v.1.15,2013-01-29 04:20:00,
2013-01-28 23:25:00,48.7,46.2,30.16,WNW,297,2.0,6.0,91,0.00,,,0.07,Wunderground v.1.15,2013-01-29 04:25:00,
2013-01-28 23:35:00,48.7,46.2,30.16,SW,233,2.0,6.0,91,0.00,,,0.07,Wunderground v.1.15,2013-01-29 04:35:00,
2013-01-28 23:40:00,48.6,46.1,30.16,SW,234,2.0,6.0,91,0.00,,,0.07,Wunderground v.1.15,2013-01-29 04:40:00,
2013-01-28 23:45:00,48.6,46.4,30.16,WSW,243,2.0,6.0,92,0.00,,,0.07,Wunderground v.1.15,2013-01-29 04:45:00,
2013-01-28 23:50:00,48.6,46.4,30.16,SW,215,2.0,6.0,92,0.00,,,0.07,Wunderground v.1.15,2013-01-29 04:50:00,
2013-01-28 23:55:00,48.7,46.5,30.16,SSW,212,2.0,6.0,92,0.00,,,0.07,Wunderground v.1.15,2013-01-29 04:55:00,